QPF
0.02 0.03 0.03 0.02 0.03 0.03 0.03 0.04 0.04 0.03 0.02 0.02 0.02 0.02 0.02 0.02 0.02 0.02 0.03 0.02 0.01 0.01 0.01 0.01 0.01 0.01 0.01 0.01 0.01 0.02 0.03 0.04 0.04 0.04 0.04 0.04 0.05 0.06
0.02 0.02 0.02 0.02 0.02 0.03 0.02 0.03 0.04 0.04 0.03 0.02 0.02 0.02 0.02 0.01 0.02 0.02 0.02 0.02 0.01 0.01 0.01 0.01 0.01 0.01 0.01 0.01 0.01 0.01 0.01 0.02 0.02 0.03 0.03 0.03 0.03 0.04
0.01 0.01 0.01 0.02 0.02 0.03 0.03 0.03 0.04 0.04 0.04 0.02 0.02 0.02 0.02 0.01 0.01 0.02 0.02 0.01 0.02 0.01 0.01 0.01 0.01 0.01 0.01 0.01 0.01 0.01 0.01 0.02 0.02 0.03 0.02 0.02 0.02 0.02
0.01 0.02 0.02 0.03 0.03 0.03 0.03 0.03 0.04 0.05 0.04 0.03 0.02 0.02 0.02 0.02 0.02 0.03 0.02 0.02 0.01 0.01 0.02 0.02 0.02 0.02 0.01 0.01 0.01 0.01 0.01 0.01 0.02 0.02 0.03 0.02 0.01 0.01
0.02 0.03 0.03 0.04 0.04 0.03 0.03 0.03 0.04 0.04 0.05 0.05 0.03 0.03 0.02 0.02 0.02 0.02 0.02 0.02 0.02 0.02 0.02 0.02 0.02 0.01 0.02 0.02 0.01 0.01 0.01 0.01 0.01 0.02 0.03 0.03 0.03 0.02
0.04 0.04 0.04 0.04 0.04 0.04 0.03 0.03 0.04 0.04 0.05 0.04 0.03 0.03 0.03 0.02 0.02 0.02 0.02 0.03 0.02 0.02 0.02 0.02 0.01 0.01 0.01 0.01 0.01 0.01 0.01 0.01 0.02 0.02 0.03 0.04 0.03 0.03
0.05 0.04 0.04 0.04 0.04 0.03 0.03 0.02 0.02 0.03 0.03 0.03 0.03 0.03 0.03 0.02 0.02 0.02 0.02 0.02 0.02 0.02 0.03 0.02 0.02 0.02 0.01 0.01 0.01 0.02 0.01 0.01 0.02 0.02 0.02 0.03 0.03 0.04
0.05 0.05 0.04 0.03 0.04 0.04 0.03 0.02 0.02 0.02 0.02 0.02 0.02 0.02 0.02 0.03 0.04 0.04 0.04 0.04 0.04 0.03 0.03 0.04 0.03 0.02 0.02 0.02 0.02 0.02 0.01 0.01 0.01 0.01 0.02 0.02 0.03 0.04
0.06 0.05 0.05 0.05 0.06 0.05 0.04 0.03 0.02 0.01 0.01 0.02 0.02 0.02 0.03 0.03 0.04 0.05 0.05 0.05 0.04 0.04 0.04 0.04 0.04 0.03 0.02 0.01 0.01 0.01 0.01 0.01 0.01 0.01 0.01 0.01 0.01 0.02
0.05 0.04 0.04 0.04 0.04 0.03 0.03 0.02 0.02 0.02 0.02 0.02 0.01 0.01 0.01 0.02 0.03 0.03 0.04 0.04 0.03 0.03 0.04 0.04 0.03 0.02 0.01 0.01 0.01 0.01 0.01 0.01 0.01 0.01 0.01 0.01 0.01 0.01
0.05 0.04 0.03 0.03 0.02 0.02 0.02 0.02 0.02 0.02 0.02 0.02 0.02 0.03 0.02 0.02 0.02 0.02 0.02 0.03 0.03 0.03 0.03 0.04 0.03 0.02 0.02 0.02 0.01 0.01 0.01 0.01 0.01 0.01 0.01 0.01 0.01 0.01
0.02 0.02 0.03 0.02 0.02 0.02 0.02 0.02 0.01 0.01 0.02 0.03 0.03 0.03 0.03 0.03 0.03 0.03 0.03 0.04 0.04 0.03 0.03 0.04 0.04 0.04 0.04 0.03 0.02 0.01 0.01 0.01 0.01 0.01 0.01 0.01 0.01 0.01
0.01 0.01 0.02 0.02 0.02 0.02 0.03 0.02 0.02 0.02 0.03 0.03 0.03 0.03 0.03 0.03 0.03 0.04 0.04 0.04 0.04 0.04 0.03 0.03 0.03 0.04 0.05 0.06 0.04 0.03 0.02 0.02 0.02 0.01 0.01 0.01 0.01 0.01
0.02 0.03 0.02 0.01 0.01 0.01 0.02 0.02 0.02 0.04 0.03 0.03 0.03 0.03 0.03 0.04 0.04 0.03 0.04 0.04 0.04 0.04 0.03 0.03 0.03 0.04 0.04 0.05 0.04 0.02 0.02 0.02 0.02 0.02 0.02 0.01 0.01 0.01
0.04 0.05 0.03 0.01 0.01 0.01 0.01 0.02 0.03 0.03 0.03 0.03 0.03 0.03 0.03 0.04 0.05 0.05 0.04 0.04 0.04 0.03 0.03 0.02 0.03 0.04 0.04 0.04 0.03 0.02 0.02 0.02 0.02 0.02 0.02 0.02 0.03 0.02
0.06 0.05 0.03 0.02 0.01 0.01 0.01 0.01 0.02 0.04 0.04 0.03 0.03 0.03 0.03 0.05 0.06 0.05 0.05 0.05 0.04 0.04 0.03 0.03 0.02 0.03 0.04 0.04 0.03 0.02 0.03 0.03 0.03 0.04 0.03 0.03 0.03 0.03
0.08 0.04 0.02 0.02 0.02 0.02 0.02 0.03 0.04 0.04 0.04 0.04 0.04 0.04 0.05 0.05 0.06 0.05 0.06 0.06 0.06 0.04 0.03 0.03 0.03 0.02 0.03 0.03 0.04 0.03 0.03 0.03 0.04 0.05 0.04 0.04 0.03 0.03
0.06 0.05 0.03 0.02 0.01 0.02 0.02 0.02 0.03 0.03 0.03 0.03 0.04 0.05 0.05 0.06 0.06 0.06 0.06 0.06 0.05 0.05 0.04 0.04 0.04 0.04 0.03 0.03 0.03 0.03 0.04 0.04 0.04 0.06 0.06 0.05 0.04 0.03
0.03 0.03 0.04 0.04 0.03 0.02 0.02 0.02 0.02 0.03 0.03 0.03 0.04 0.05 0.04 0.04 0.04 0.05 0.06 0.06 0.06 0.05 0.05 0.05 0.05 0.05 0.04 0.03 0.02 0.03 0.04 0.04 0.04 0.06 0.06 0.05 0.04 0.04
0.04 0.03 0.04 0.05 0.04 0.03 0.02 0.02 0.02 0.03 0.03 0.03 0.03 0.03 0.03 0.03 0.03 0.04 0.05 0.06 0.06 0.06 0.06 0.06 0.07 0.06 0.06 0.05 0.04 0.03 0.04 0.04 0.04 0.04 0.05 0.04 0.03 0.03
0.04 0.04 0.03 0.03 0.04 0.03 0.03 0.03 0.04 0.03 0.03 0.03 0.03 0.03 0.03 0.03 0.03 0.03 0.03 0.04 0.04 0.04 0.04 0.04 0.05 0.06 0.07 0.08 0.07 0.05 0.04 0.04 0.04 0.03 0.03 0.03 0.03 0.03
0.03 0.04 0.04 0.03 0.03 0.03 0.04 0.03 0.03 0.03 0.03 0.03 0.03 0.03 0.03 0.03 0.03 0.03 0.03 0.04 0.04 0.04 0.04 0.04 0.05 0.07 0.10 0.11 0.09 0.06 0.05 0.05 0.06 0.05 0.04 0.03 0.02 0.02
0.03 0.03 0.04 0.04 0.03 0.03 0.03 0.02 0.02 0.03 0.04 0.04 0.04 0.03 0.03 0.03 0.03 0.03 0.04 0.04 0.04 0.04 0.05 0.06 0.06 0.08 0.09 0.09 0.08 0.08 0.07 0.06 0.05 0.05 0.04 0.02 0.02 0.01
MSLP
1013.84 1013.84 1013.90 1013.98 1014.06 1014.10 1014.06 1013.92 1013.68 1013.37 1013.00 1012.63 1012.30 1012.05 1011.91 1011.89 1011.99 1012.19 1012.46 1012.77 1013.10 1013.42 1013.70 1013.96 1014.18 1014.38 1014.56 1014.73 1014.89 1015.06 1015.22 1015.39 1015.55 1015.70 1015.85 1015.98 1016.11 1016.22
1013.27 1013.23 1013.24 1013.30 1013.37 1013.41 1013.41 1013.34 1013.18 1012.95 1012.66 1012.36 1012.08 1011.86 1011.72 1011.68 1011.73 1011.87 1012.08 1012.33 1012.61 1012.87 1013.13 1013.37 1013.58 1013.78 1013.96 1014.15 1014.33 1014.51 1014.69 1014.88 1015.05 1015.23 1015.39 1015.54 1015.69 1015.82
1012.70 1012.63 1012.61 1012.64 1012.69 1012.74 1012.76 1012.74 1012.65 1012.50 1012.30 1012.07 1011.85 1011.67 1011.55 1011.49 1011.52 1011.62 1011.78 1011.97 1012.19 1012.42 1012.64 1012.85 1013.05 1013.24 1013.42 1013.61 1013.79 1013.97 1014.16 1014.35 1014.53 1014.71 1014.89 1015.06 1015.22 1015.38
1012.18 1012.08 1012.03 1012.02 1012.06 1012.10 1012.14 1012.15 1012.11 1012.03 1011.90 1011.74 1011.58 1011.44 1011.34 1011.29 1011.31 1011.38 1011.50 1011.66 1011.84 1012.04 1012.24 1012.43 1012.61 1012.79 1012.97 1013.14 1013.31 1013.49 1013.67 1013.85 1014.03 1014.21 1014.39 1014.57 1014.76 1014.94
1011.66 1011.55 1011.47 1011.44 1011.45 1011.49 1011.53 1011.55 1011.54 1011.50 1011.42 1011.32 1011.21 1011.11 1011.03 1011.00 1011.02 1011.08 1011.19 1011.33 1011.50 1011.68 1011.87 1012.06 1012.24 1012.42 1012.59 1012.76 1012.92 1013.09 1013.26 1013.42 1013.60 1013.78 1013.96 1014.16 1014.36 1014.56
1011.11 1010.98 1010.89 1010.84 1010.84 1010.86 1010.89 1010.91 1010.91 1010.89 1010.84 1010.77 1010.69 1010.62 1010.57 1010.56 1010.59 1010.66 1010.77 1010.91 1011.09 1011.28 1011.48 1011.69 1011.89 1012.08 1012.27 1012.45 1012.62 1012.79 1012.95 1013.12 1013.29 1013.47 1013.66 1013.86 1014.07 1014.28
1010.46 1010.33 1010.23 1010.17 1010.15 1010.16 1010.17 1010.19 1010.19 1010.17 1010.13 1010.07 1010.01 1009.95 1009.92 1009.92 1009.96 1010.04 1010.17 1010.33 1010.53 1010.75 1010.99 1011.24 1011.49 1011.73 1011.96 1012.18 1012.38 1012.58 1012.76 1012.94 1013.12 1013.30 1013.50 1013.71 1013.92 1014.14
1009.69 1009.55 1009.46 1009.40 1009.37 1009.36 1009.37 1009.37 1009.36 1009.33 1009.28 1009.22 1009.15 1009.10 1009.07 1009.07 1009.11 1009.20 1009.35 1009.54 1009.78 1010.05 1010.35 1010.66 1010.99 1011.30 1011.61 1011.90 1012.17 1012.42 1012.65 1012.87 1013.07 1013.28 1013.49 1013.70 1013.91 1014.12
1008.79 1008.66 1008.57 1008.52 1008.49 1008.48 1008.48 1008.46 1008.43 1008.39 1008.32 1008.24 1008.15 1008.08 1008.04 1008.03 1008.06 1008.16 1008.32 1008.53 1008.81 1009.14 1009.51 1009.91 1010.33 1010.75 1011.17 1011.56 1011.93 1012.27 1012.57 1012.85 1013.10 1013.34 1013.57 1013.78 1013.99 1014.19
1007.82 1007.70 1007.62 1007.57 1007.55 1007.54 1007.53 1007.50 1007.45 1007.38 1007.28 1007.17 1007.06 1006.96 1006.88 1006.85 1006.87 1006.95 1007.11 1007.34 1007.65 1008.03 1008.48 1008.97 1009.50 1010.04 1010.58 1011.10 1011.59 1012.04 1012.44 1012.80 1013.12 1013.40 1013.65 1013.88 1014.08 1014.26
1006.87 1006.75 1006.68 1006.64 1006.62 1006.60 1006.58 1006.53 1006.46 1006.35 1006.22 1006.08 1005.92 1005.78 1005.67 1005.60 1005.59 1005.65 1005.80 1006.03 1006.37 1006.79 1007.30 1007.87 1008.50 1009.16 1009.83 1010.48 1011.10 1011.67 1012.18 1012.63 1013.01 1013.35 1013.63 1013.88 1014.08 1014.25
1006.04 1005.91 1005.83 1005.78 1005.75 1005.71 1005.66 1005.59 1005.48 1005.34 1005.17 1004.99 1004.80 1004.62 1004.47 1004.36 1004.31 1004.35 1004.47 1004.70 1005.04 1005.49 1006.04 1006.68 1007.39 1008.15 1008.92 1009.69 1010.42 1011.10 1011.71 1012.24 1012.70 1013.09 1013.41 1013.68 1013.90 1014.07
1005.39 1005.24 1005.13 1005.04 1004.97 1004.90 1004.81 1004.69 1004.54 1004.36 1004.15 1003.93 1003.70 1003.49 1003.31 1003.17 1003.10 1003.11 1003.21 1003.43 1003.76 1004.22 1004.79 1005.46 1006.22 1007.04 1007.89 1008.74 1009.56 1010.32 1011.01 1011.61 1012.13 1012.56 1012.93 1013.22 1013.47 1013.67
1004.95 1004.75 1004.59 1004.44 1004.31 1004.17 1004.02 1003.84 1003.64 1003.41 1003.17 1002.91 1002.67 1002.44 1002.24 1002.09 1002.00 1001.99 1002.08 1002.28 1002.61 1003.05 1003.62 1004.31 1005.08 1005.92 1006.80 1007.68 1008.54 1009.35 1010.08 1010.73 1011.29 1011.77 1012.17 1012.51 1012.79 1013.04
1004.70 1004.44 1004.20 1003.98 1003.76 1003.53 1003.30 1003.05 1002.78 1002.51 1002.23 1001.95 1001.70 1001.47 1001.28 1001.13 1001.06 1001.05 1001.14 1001.34 1001.65 1002.08 1002.62 1003.28 1004.03 1004.86 1005.72 1006.60 1007.46 1008.27 1009.01 1009.68 1010.26 1010.77 1011.20 1011.58 1011.92 1012.23
1004.61 1004.27 1003.94 1003.62 1003.30 1002.98 1002.66 1002.33 1002.00 1001.67 1001.37 1001.08 1000.83 1000.62 1000.46 1000.35 1000.30 1000.32 1000.43 1000.62 1000.92 1001.33 1001.84 1002.46 1003.16 1003.94 1004.75 1005.59 1006.40 1007.19 1007.91 1008.57 1009.16 1009.68 1010.15 1010.57 1010.97 1011.35
1004.61 1004.20 1003.79 1003.38 1002.96 1002.55 1002.13 1001.73 1001.34 1000.98 1000.65 1000.36 1000.13 999.95 999.83 999.76 999.76 999.82 999.95 1000.16 1000.46 1000.84 1001.32 1001.88 1002.52 1003.23 1003.97 1004.74 1005.49 1006.22 1006.91 1007.55 1008.13 1008.66 1009.16 1009.62 1010.07 1010.52
1004.69 1004.23 1003.76 1003.27 1002.78 1002.29 1001.80 1001.34 1000.90 1000.51 1000.17 999.89 999.67 999.53 999.45 999.43 999.47 999.57 999.73 999.96 1000.25 1000.62 1001.06 1001.57 1002.14 1002.77 1003.44 1004.13 1004.82 1005.49 1006.14 1006.75 1007.32 1007.86 1008.37 1008.87 1009.36 1009.86
1004.85 1004.36 1003.86 1003.34 1002.80 1002.27 1001.74 1001.24 1000.78 1000.36 1000.01 999.74 999.53 999.40 999.35 999.36 999.43 999.56 999.74 999.97 1000.27 1000.61 1001.02 1001.48 1002.00 1002.57 1003.17 1003.79 1004.42 1005.05 1005.66 1006.25 1006.81 1007.35 1007.87 1008.39 1008.91 1009.44
1005.10 1004.64 1004.14 1003.63 1003.09 1002.56 1002.03 1001.51 1001.04 1000.61 1000.25 999.96 999.75 999.61 999.55 999.56 999.63 999.76 999.94 1000.16 1000.44 1000.77 1001.15 1001.57 1002.05 1002.57 1003.12 1003.70 1004.29 1004.89 1005.48 1006.05 1006.61 1007.15 1007.68 1008.21 1008.73 1009.26
1005.47 1005.06 1004.62 1004.16 1003.67 1003.17 1002.67 1002.18 1001.71 1001.27 1000.89 1000.57 1000.32 1000.15 1000.04 1000.01 1000.03 1000.12 1000.27 1000.46 1000.71 1001.01 1001.36 1001.75 1002.20 1002.69 1003.21 1003.77 1004.34 1004.93 1005.51 1006.09 1006.65 1007.19 1007.73 1008.24 1008.75 1009.25
1005.95 1005.63 1005.28 1004.90 1004.50 1004.08 1003.63 1003.18 1002.72 1002.29 1001.88 1001.51 1001.19 1000.94 1000.75 1000.63 1000.57 1000.58 1000.66 1000.80 1000.99 1001.25 1001.57 1001.94 1002.36 1002.83 1003.35 1003.90 1004.47 1005.06 1005.65 1006.23 1006.80 1007.35 1007.87 1008.36 1008.84 1009.30
1006.50 1006.28 1006.05 1005.79 1005.50 1005.17 1004.80 1004.40 1003.97 1003.52 1003.08 1002.65 1002.24 1001.88 1001.58 1001.34 1001.17 1001.07 1001.05 1001.10 1001.23 1001.44 1001.71 1002.05 1002.46 1002.92 1003.43 1003.98 1004.56 1005.15 1005.75 1006.34 1006.90 1007.44 1007.95 1008.42 1008.85 1009.25
Thickness
5735 5733 5732 5732 5731 5731 5729 5727 5722 5719 5722 5725 5726 5728 5726 5725 5722 5720 5719 5717 5715 5715 5714 5713 5712 5712 5711 5711 5711 5711 5711 5711 5711 5712 5712 5712 5712 5712
5728 5726 5725 5727 5726 5725 5725 5723 5721 5718 5716 5721 5721 5723 5720 5720 5717 5715 5715 5713 5711 5710 5709 5708 5707 5706 5706 5706 5706 5706 5706 5706 5706 5706 5707 5707 5707 5707
5723 5722 5720 5719 5719 5719 5719 5717 5715 5713 5710 5714 5717 5717 5713 5712 5711 5710 5710 5710 5710 5707 5705 5703 5702 5701 5701 5700 5700 5700 5700 5700 5700 5701 5701 5701 5701 5701
5718 5716 5715 5714 5711 5711 5711 5710 5708 5707 5705 5703 5707 5708 5706 5706 5705 5704 5706 5707 5705 5703 5700 5699 5698 5696 5695 5695 5695 5694 5694 5694 5694 5694 5694 5694 5695 5695
5713 5711 5710 5707 5705 5705 5703 5703 5703 5703 5701 5699 5700 5701 5701 5701 5699 5699 5700 5699 5700 5699 5696 5694 5692 5691 5690 5689 5689 5689 5688 5688 5688 5688 5687 5687 5687 5688
5708 5706 5704 5702 5700 5698 5698 5696 5696 5695 5694 5693 5694 5694 5693 5693 5691 5691 5691 5692 5693 5695 5692 5691 5688 5686 5685 5684 5684 5683 5681 5681 5680 5680 5680 5680 5680 5681
5702 5700 5699 5696 5693 5691 5691 5690 5688 5687 5688 5687 5687 5686 5685 5684 5683 5684 5683 5684 5686 5687 5686 5686 5685 5684 5683 5680 5678 5677 5675 5674 5673 5673 5673 5673 5673 5673
5695 5694 5693 5690 5687 5683 5681 5680 5678 5677 5677 5677 5678 5676 5676 5677 5676 5676 5675 5675 5675 5680 5677 5678 5679 5678 5679 5678 5674 5671 5668 5667 5666 5666 5666 5666 5666 5666
5688 5686 5686 5686 5681 5679 5676 5674 5672 5669 5668 5668 5669 5668 5668 5668 5666 5666 5666 5665 5665 5668 5667 5668 5670 5670 5671 5671 5667 5664 5662 5660 5659 5659 5658 5659 5659 5659
5681 5679 5676 5674 5673 5669 5669 5668 5667 5666 5664 5663 5662 5661 5661 5660 5658 5658 5657 5658 5659 5660 5660 5658 5662 5662 5664 5662 5658 5656 5654 5653 5652 5651 5651 5651 5652 5652
5673 5672 5669 5667 5661 5658 5659 5659 5659 5659 5657 5655 5653 5652 5651 5650 5649 5649 5649 5649 5650 5652 5653 5651 5653 5654 5654 5654 5652 5649 5647 5646 5644 5644 5644 5644 5645 5645
5667 5665 5660 5657 5653 5650 5651 5651 5650 5650 5650 5650 5647 5646 5645 5644 5642 5641 5641 5640 5641 5643 5646 5643 5644 5644 5644 5647 5646 5643 5641 5639 5638 5637 5638 5638 5638 5639
5660 5659 5655 5648 5644 5642 5641 5642 5641 5640 5642 5642 5642 5642 5641 5640 5639 5637 5635 5633 5633 5634 5637 5635 5634 5634 5634 5635 5636 5636 5636 5635 5634 5633 5632 5632 5631 5632
5651 5651 5647 5640 5637 5634 5634 5632 5631 5630 5634 5635 5634 5634 5634 5633 5633 5632 5630 5628 5627 5627 5627 5626 5626 5625 5625 5626 5627 5629 5630 5630 5630 5629 5629 5627 5626 5626
5641 5637 5633 5630 5628 5628 5626 5624 5624 5626 5626 5626 5626 5626 5626 5626 5625 5624 5624 5622 5620 5621 5621 5620 5619 5618 5618 5618 5619 5620 5621 5623 5623 5623 5623 5623 5623 5623
5630 5627 5623 5622 5621 5620 5620 5620 5620 5619 5618 5618 5618 5619 5619 5618 5618 5617 5616 5616 5615 5616 5615 5614 5612 5611 5611 5612 5612 5613 5614 5615 5616 5616 5616 5617 5618 5619
5619 5619 5620 5619 5618 5618 5617 5616 5614 5612 5611 5610 5610 5609 5610 5610 5610 5610 5608 5608 5607 5608 5609 5609 5608 5607 5606 5606 5606 5608 5609 5609 5610 5609 5608 5610 5612 5613
5608 5612 5612 5612 5611 5610 5609 5607 5606 5604 5603 5602 5602 5602 5602 5602 5602 5601 5600 5600 5600 5600 5601 5601 5601 5600 5600 5601 5600 5602 5603 5603 5604 5603 5602 5604 5605 5607
5600 5605 5605 5603 5602 5602 5602 5601 5599 5597 5595 5595 5595 5594 5594 5594 5593 5593 5593 5593 5593 5593 5593 5594 5593 5593 5593 5595 5598 5595 5596 5596 5596 5596 5597 5598 5600 5601
5597 5597 5597 5596 5595 5595 5595 5594 5592 5590 5589 5588 5587 5586 5586 5585 5585 5585 5585 5584 5585 5585 5586 5587 5587 5586 5587 5589 5590 5591 5588 5590 5591 5591 5592 5594 5594 5594
5591 5590 5590 5589 5588 5587 5586 5585 5584 5583 5582 5581 5580 5578 5577 5577 5577 5577 5578 5576 5576 5578 5579 5581 5580 5578 5580 5581 5583 5585 5585 5583 5584 5585 5587 5587 5588 5590
5585 5583 5582 5581 5580 5579 5577 5576 5576 5575 5574 5573 5573 5571 5571 5570 5570 5570 5570 5570 5571 5572 5572 5574 5574 5574 5575 5574 5575 5577 5579 5580 5579 5578 5578 5580 5583 5585
5578 5576 5575 5574 5572 5571 5570 5568 5568 5568 5567 5566 5565 5564 5564 5564 5564 5564 5564 5564 5564 5565 5566 5567 5569 5569 5570 5570 5570 5571 5572 5574 5574 5574 5575 5575 5574 5575